FW6717 Weather Reports


time (UTC)temp
C
wind
direction
speed
KPH
gust
KPH
rain 1hr
cm
rain 24hr
cm
rain mn
cm
humidity
%
barometer
mb
20260506201532 29 107 6.4 19.3 0.00 0.00 0.00 77 1007.6
20260506201031 29 160 9.7 19.3 0.00 0.00 0.00 77 1007.6
20260506200533 29 125 9.7 19.3 0.00 0.00 0.00 76 1007.6
20260506200031 30 130 11.3 17.7 0.00 0.00 0.00 75 1007.7
20260506195531 30 131 3.2 14.5 0.00 0.00 0.00 76 1007.7
20260506195033 30 159 3.2 16.1 0.00 0.00 0.00 75 1007.7
20260506194530 30 111 4.8 16.1 0.00 0.00 0.00 75 1007.9
20260506194031 30 171 4.8 12.9 0.00 0.00 0.00 74 1008.1
20260506193529 30 164 6.4 12.9 0.00 0.00 0.00 74 1008.0
20260506193032 30 200 4.8 16.1 0.00 0.00 0.00 75 1008.0
20260506192533 30 126 4.8 16.1 0.00 0.00 0.00 75 1008.0
20260506192029 29 184 6.4 17.7 0.00 0.00 0.00 77 1008.2
20260506191529 29 160 8.0 17.7 0.00 0.00 0.00 77 1008.2
20260506191029 28 89 12.9 20.9 0.00 0.00 0.00 78 1008.3
20260506190532 28 130 8.0 20.9 0.00 0.00 0.00 79 1008.3
20260506190028 28 145 8.0 17.7 0.00 0.00 0.00 79 1008.5
20260506185528 28 133 4.8 12.9 0.00 0.00 0.00 81 1008.5
20260506185028 27 130 3.2 14.5 0.00 0.00 0.00 81 1008.6
20260506184528 28 200 6.4 14.5 0.00 0.00 0.00 81 1008.5
20260506184030 28 164 3.2 14.5 0.00 0.00 0.00 80 1008.6
20260506183527 28 175 4.8 20.9 0.00 0.00 0.00 80 1008.6
20260506183027 28 187 9.7 20.9 0.00 0.00 0.00 79 1008.6
20260506182527 28 174 3.2 11.3 0.00 0.00 0.00 78 1008.6
20260506182027 28 117 1.6 14.5 0.00 0.00 0.00 78 1008.6
20260506181528 29 155 4.8 14.5 0.00 0.00 0.00 77 1008.6
20260506181027 29 176 4.8 16.1 0.00 0.00 0.00 76 1008.6
20260506180527 30 201 0.0 6.4 0.00 0.00 0.00 74 1008.7
20260506180026 30 229 3.2 6.4 0.00 0.00 0.00 73 1008.6
20260506175525 30 196 0.0 9.7 0.00 0.00 0.00 73 1008.6
20260506175028 30 191 1.6 11.3 0.00 0.00 0.00 73 1008.6
20260506174525 30 202 4.8 11.3 0.00 0.00 0.00 72 1008.6
20260506174024 30 249 3.2 6.4 0.00 0.00 0.00 73 1008.4
20260506173523 30 242 0.0 6.4 0.00 0.00 0.00 75 1008.5
20260506173022 30 210 1.6 8.0 0.00 0.00 0.00 76 1008.5
20260506172520 29 164 3.2 9.7 0.00 0.00 0.00 77 1008.5
20260506172019 29 136 1.6 11.3 0.00 0.00 0.00 78 1008.7
20260506171521 28 172 6.4 11.3 0.00 0.00 0.00 79 1008.8
20260506171017 28 218 1.6 8.0 0.00 0.00 0.00 81 1008.6
20260506170515 28 188 3.2 9.7 0.00 0.00 0.00 83 1008.6
20260506170017 27 180 3.2 9.7 0.00 0.00 0.00 83 1008.6
20260506165515 27 222 1.6 6.4 0.00 0.00 0.00 84 1008.7
20260506165011 27 192 1.6 12.9 0.00 0.00 0.00 86 1008.8
20260506164510 27 196 3.2 12.9 0.00 0.00 0.00 87 1008.8
20260506164009 27 200 1.6 6.4 0.00 0.00 0.00 87 1008.8
20260506163507 26 192 1.6 8.0 0.00 0.00 0.00 87 1008.9
20260506163012 26 185 1.6 8.0 0.00 0.00 0.00 88 1008.8
20260506162507 26 195 3.2 9.7 0.00 0.00 0.00 89 1008.7
20260506162005 26 209 3.2 9.7 0.00 0.00 0.00 89 1008.7
20260506161504 26 180 3.2 9.7 0.00 0.00 0.00 89 1008.8
20260506161004 26 225 0.0 9.7 0.00 0.00 0.00 90 1008.7
20260506160506 26 202 4.8 12.9 0.00 0.00 0.00 89 1008.6
20260506160007 26 248 3.2 11.3 0.00 0.00 0.00 89 1008.5
20260506155502 26 217 3.2 14.5 0.00 0.00 0.00 89 1008.5
20260506155001 26 163 3.2 16.1 0.00 0.00 0.00 89 1008.3
20260506154628 26 192 3.2 12.9 0.00 0.00 0.00 89 1008.2
20260506154102 26 182 6.4 16.1 0.00 0.00 0.00 88 1008.1
20260506153601 26 199 3.2 16.1 0.00 0.00 0.00 88 1008.0
20260506153110 26 202 3.2 11.3 0.00 0.00 0.00 89 1008.0
20260506152559 26 175 3.2 11.3 0.00 0.00 0.00 89 1008.0
20260506152100 26 176 1.6 14.5 0.00 0.00 0.00 89 1008.0
20260506151600 26 146 3.2 12.9 0.00 0.00 0.00 89 1007.9
20260506151058 26 189 4.8 12.9 0.00 0.00 0.00 89 1007.9
20260506150558 26 133 3.2 11.3 0.00 0.00 0.00 89 1008.1
20260506145558 26 172 1.6 11.3 0.00 0.00 0.00 89 1008.2
20260506145057 26 233 3.2 14.5 0.00 0.00 0.00 89 1007.9
20260506144557 26 192 4.8 14.5 0.00 0.00 0.00 88 1007.9
20260506144056 26 183 3.2 11.3 0.00 0.00 0.00 88 1007.9
20260506143556 26 194 4.8 11.3 0.00 0.00 0.00 88 1007.9
20260506143105 26 188 3.2 11.3 0.00 0.00 0.00 88 1007.9
20260506142556 26 206 3.2 11.3 0.00 0.00 0.00 88 1008.0
20260506142055 26 186 3.2 11.3 0.00 0.00 0.00 88 1008.0
20260506141555 26 213 3.2 8.0 0.00 0.00 0.00 88 1008.0
20260506141057 26 179 3.2 14.5 0.00 0.00 0.00 87 1008.0
20260506140555 26 165 3.2 14.5 0.00 0.00 0.00 87 1008.0
20260506140058 26 121 1.6 16.1 0.00 0.00 0.00 87 1007.9
20260506135555 26 185 3.2 11.3 0.00 0.00 0.00 87 1007.9
20260506135052 26 167 3.2 12.9 0.00 0.00 0.00 87 1008.0
20260506134553 26 167 4.8 12.9 0.00 0.00 0.00 87 1007.8
20260506134052 26 142 3.2 11.3 0.00 0.00 0.00 88 1007.8
20260506133552 26 222 3.2 11.3 0.00 0.00 0.00 88 1007.8
20260506133051 26 190 1.6 8.0 0.00 0.00 0.00 88 1007.8
20260506132550 25 153 1.6 9.7 0.00 0.00 0.00 88 1007.9
20260506132054 25 173 1.6 9.7 0.00 0.00 0.00 88 1007.9
20260506131650 25 172 1.6 9.7 0.00 0.00 0.00 88 1008.0
20260506131050 25 198 3.2 11.3 0.00 0.00 0.00 88 1007.8
20260506130552 25 188 3.2 16.1 0.00 0.00 0.00 89 1007.7
20260506130050 25 166 4.8 16.1 0.00 0.00 0.00 89 1007.7
20260506125552 25 158 3.2 14.5 0.00 0.00 0.00 89 1007.7
20260506125052 25 159 1.6 14.5 0.00 0.00 0.00 89 1007.6
20260506124549 25 123 3.2 9.7 0.00 0.00 0.00 89 1007.6
20260506124052 25 180 1.6 11.3 0.00 0.00 0.00 89 1007.5
20260506123552 25 199 1.6 8.0 0.00 0.00 0.00 89 1007.6
20260506123049 25 140 1.6 6.4 0.00 0.00 0.00 89 1007.5
20260506122548 25 150 1.6 11.3 0.00 0.00 0.00 89 1007.5
20260506122047 25 150 4.8 11.3 0.00 0.00 0.00 88 1007.4
20260506121547 25 130 4.8 11.3 0.00 0.00 0.00 88 1007.5
20260506121047 25 139 3.2 11.3 0.00 0.00 0.00 88 1007.5
20260506120547 25 146 1.6 6.4 0.00 0.00 0.00 88 1007.4
20260506120056 25 146 3.2 6.4 0.00 0.00 0.00 88 1007.3
20260506115548 25 173 1.6 4.8 0.00 0.00 0.00 88 1007.3
20260506115047 25 173 0.0 6.4 0.00 0.00 0.00 88 1007.3
20260506114555 25 175 1.6 9.7 0.00 0.00 0.00 88 1007.3
20260506114049 25 173 1.6 9.7 0.00 0.00 0.00 88 1007.4
20260506113549 25 227 0.0 9.7 0.00 0.00 0.00 88 1007.2
20260506113046 25 227 3.2 9.7 0.00 0.00 0.00 88 1007.1
20260506112546 25 159 1.6 8.0 0.00 0.00 0.00 88 1007.1
20260506112048 25 159 1.6 9.7 0.00 0.00 0.00 88 1007.1
20260506111545 25 153 3.2 9.7 0.00 0.00 0.00 88 1007.1
20260506111045 25 157 1.6 8.0 0.00 0.00 0.00 88 1007.1
20260506110545 25 147 3.2 9.7 0.00 0.00 0.00 88 1007.1
20260506110054 25 147 1.6 6.4 0.00 0.00 0.00 88 1007.2
20260506105545 25 178 1.6 6.4 0.00 0.00 0.00 88 1007.1
20260506105044 25 180 1.6 4.8 0.00 0.00 0.00 88 1007.1
20260506104544 25 180 1.6 4.8 0.00 0.00 0.00 88 1007.1
20260506104145 25 180 1.6 6.4 0.00 0.00 0.00 88 1007.0
20260506103543 25 180 1.6 9.7 0.00 0.00 0.00 88 1007.0
20260506103043 25 111 1.6 9.7 0.00 0.00 0.00 88 1007.2
20260506102543 25 171 1.6 9.7 0.00 0.00 0.00 88 1007.2
20260506102044 25 132 1.6 6.4 0.00 0.00 0.00 88 1007.1
20260506101544 25 178 1.6 8.0 0.00 0.00 0.00 88 1007.0
20260506101047 25 123 4.8 8.0 0.00 0.00 0.00 88 1006.9
20260506100543 25 126 0.0 4.8 0.00 0.00 0.00 88 1006.9
20260506100046 25 182 1.6 9.7 0.00 0.00 0.00 88 1006.9
20260506095545 25 161 3.2 9.7 0.00 0.00 0.00 88 1006.9
20260506095042 25 175 3.2 9.7 0.00 0.00 0.00 88 1006.9
20260506094601 25 155 3.2 11.3 0.00 0.00 0.00 88 1006.8
20260506094042 25 159 3.2 11.3 0.00 0.00 0.00 88 1006.8
20260506093541 25 144 1.6 8.0 0.00 0.00 0.00 87 1006.9
20260506093044 25 188 1.6 6.4 0.00 0.00 0.00 87 1006.8
20260506092542 25 189 0.0 6.4 0.00 0.00 0.00 87 1006.9
20260506092041 25 189 1.6 9.7 0.00 0.00 0.00 87 1006.9
20260506091541 25 202 3.2 9.7 0.00 0.00 0.00 87 1006.7
20260506091040 25 161 4.8 11.3 0.00 0.00 0.00 87 1006.6
20260506090541 25 203 4.8 12.9 0.00 0.00 0.00 87 1006.6
20260506090041 25 232 3.2 11.3 0.00 0.00 0.00 87 1006.6
20260506085540 25 96 1.6 9.7 0.00 0.00 0.00 87 1006.6
20260506085040 25 126 3.2 14.5 0.00 0.00 0.00 87 1006.6
20260506084540 25 96 3.2 14.5 0.00 0.00 0.00 87 1006.6
20260506084044 25 217 4.8 16.1 0.00 0.00 0.00 87 1006.7
20260506083540 25 138 4.8 16.1 0.00 0.00 0.00 87 1006.5
20260506083040 25 165 6.4 16.1 0.00 0.00 0.00 87 1006.6
20260506082543 25 195 1.6 9.7 0.00 0.00 0.00 87 1006.6
20260506082039 25 202 3.2 14.5 0.00 0.00 0.00 87 1006.5
20260506081539 25 221 1.6 14.5 0.00 0.00 0.00 87 1006.5
20260506081038 25 156 4.8 14.5 0.00 0.00 0.00 87 1006.5
20260506080538 25 207 3.2 11.3 0.00 0.00 0.00 87 1006.5
20260506073040 25 209 4.8 22.5 0.00 0.00 0.00 85 1006.6
20260506072532 25 191 3.2 22.5 0.00 0.00 0.00 85 1006.8
20260506072034 25 155 4.8 12.9 0.00 0.00 0.00 85 1006.9
20260506071534 25 188 4.8 12.9 0.00 0.00 0.00 86 1007.0
20260506071030 25 192 3.2 11.3 0.00 0.00 0.00 86 1007.1
20260506070529 25 190 4.8 16.1 0.00 0.00 0.00 85 1007.2
20260506062024 25 171 4.8 14.5 0.00 0.00 0.00 85 1007.7
20260506061531 25 208 3.2 14.5 0.00 0.00 0.00 86 1007.6
20260506061026 25 223 6.4 14.5 0.00 0.00 0.00 86 1007.6
20260506060522 25 167 3.2 12.9 0.00 0.00 0.00 87 1007.6
20260506051017 25 184 3.2 12.9 0.00 0.00 0.00 86 1007.9
20260506050518 25 207 4.8 17.7 0.00 0.00 0.00 86 1007.9
20260506045015 25 177 4.8 19.3 0.00 0.00 0.00 86 1007.7
20260506044515 25 170 8.0 24.1 0.00 0.00 0.00 86 1007.9
20260506044018 25 216 6.4 24.1 0.00 0.00 0.00 86 1007.9
20260506043514 25 194 4.8 25.7 0.00 0.00 0.00 86 1007.7
20260506043014 25 199 8.0 25.7 0.00 0.00 0.00 86 1007.7
20260506042516 25 254 6.4 17.7 0.00 0.00 0.00 86 1007.6
20260506042018 25 155 6.4 17.7 0.00 0.00 0.00 86 1007.8
20260506041517 25 166 4.8 9.7 0.00 0.00 0.00 86 1007.7
20260506041013 25 179 3.2 12.9 0.00 0.00 0.00 87 1007.7
20260506040513 25 188 4.8 17.7 0.00 0.00 0.00 87 1007.6
20260506040037 25 155 4.8 17.7 0.00 0.00 0.00 87 1007.5
20260506035513 25 132 8.0 17.7 0.00 0.00 0.00 87 1007.5
20260506035013 25 164 4.8 16.1 0.00 0.00 0.00 87 1007.5
20260506034513 25 211 4.8 19.3 0.00 0.00 0.00 87 1007.4
20260506034013 25 182 6.4 19.3 0.00 0.00 0.00 87 1007.3
20260506033512 25 134 8.0 17.7 0.00 0.00 0.00 87 1007.2
20260506033012 25 191 6.4 27.4 0.00 0.00 0.00 87 1007.2
20260506032512 25 145 6.4 27.4 0.00 0.00 0.00 87 1007.0
20260506032012 25 190 6.4 24.1 0.00 0.00 0.00 87 1007.0
20260506031526 25 202 9.7 19.3 0.00 0.00 0.00 87 1006.9
20260506031015 25 214 6.4 25.7 0.00 0.00 0.00 87 1007.0
20260506030511 25 178 4.8 25.7 0.00 0.00 0.00 87 1006.9
20260506030011 25 236 6.4 17.7 0.00 0.00 0.00 87 1006.8
20260506025511 25 108 8.0 22.5 0.00 0.00 0.00 87 1006.8
20260506025013 25 173 6.4 22.5 0.00 0.00 0.00 87 1006.8
20260506024517 25 186 6.4 17.7 0.00 0.00 0.00 87 1006.7
20260506024010 25 166 8.0 20.9 0.00 0.00 0.00 87 1006.7
20260506023510 25 184 9.7 20.9 0.00 0.00 0.00 87 1006.8
20260506023011 25 169 1.6 17.7 0.00 0.00 0.00 87 1006.7
20260506022509 25 179 8.0 16.1 0.00 0.00 0.00 86 1006.8
20260506022009 25 134 6.4 16.1 0.00 0.00 0.00 86 1006.7
20260506021511 25 173 6.4 17.7 0.00 0.00 0.00 86 1006.5
20260506021009 25 196 4.8 19.3 0.00 0.00 0.00 86 1006.5
20260506020512 25 94 8.0 24.1 0.00 0.00 0.00 86 1006.4
20260506020009 25 191 6.4 17.7 0.00 0.00 0.00 86 1006.4
20260506015510 25 183 8.0 17.7 0.00 0.00 0.00 85 1006.2
20260506015008 25 215 4.8 16.1 0.00 0.00 0.00 85 1006.3
20260506014512 25 194 8.0 19.3 0.00 0.00 0.00 85 1006.3
20260506014007 25 138 6.4 19.3 0.00 0.00 0.00 85 1006.2
20260506013512 25 208 6.4 27.4 0.00 0.00 0.00 85 1006.0
20260506013007 25 137 3.2 27.4 0.00 0.00 0.00 85 1006.0
20260506012508 25 196 3.2 24.1 0.00 0.00 0.00 85 1005.9
20260506012009 26 181 6.4 24.1 0.00 0.00 0.00 85 1005.7
20260506011507 26 176 6.4 14.5 0.00 0.00 0.00 84 1005.7
20260506011007 26 179 3.2 17.7 0.00 0.00 0.00 84 1005.8
20260506010507 26 184 8.0 17.7 0.00 0.00 0.00 84 1005.6
20260506010012 26 167 8.0 17.7 0.00 0.00 0.00 84 1005.7
20260506005507 26 159 8.0 17.7 0.00 0.00 0.00 83 1005.7
20260506005009 26 127 9.7 17.7 0.00 0.00 0.00 83 1005.7
20260506004511 26 223 6.4 19.3 0.00 0.00 0.00 83 1005.6
20260506004009 26 214 8.0 25.7 0.00 0.00 0.00 83 1005.7
20260506003507 26 222 8.0 25.7 0.00 0.00 0.00 82 1005.5
20260506003009 26 198 4.8 16.1 0.00 0.00 0.00 82 1005.5
20260506002505 26 201 4.8 20.9 0.00 0.00 0.00 82 1005.6
20260506002005 26 220 9.7 22.5 0.00 0.00 0.00 81 1005.5
20260506001505 26 211 11.3 24.1 0.00 0.00 0.00 81 1005.3
20260506001008 27 153 9.7 22.5 0.00 0.00 0.00 81 1005.4
20260506000505 27 126 8.0 22.5 0.00 0.00 0.00 80 1005.5
20260506000005 27 141 6.4 24.1 0.00 0.00 0.00 80 1005.4
20260505235504 27 171 9.7 25.7 0.00 0.00 0.00 79 1005.4
20260505235004 27 200 9.7 25.7 0.00 0.00 0.00 79 1005.3
20260505234504 27 169 4.8 20.9 0.00 0.00 0.00 78 1005.3
20260505234004 27 182 9.7 22.5 0.00 0.00 0.00 78 1005.5
20260505233504 27 141 11.3 25.7 0.00 0.00 0.00 78 1005.4
20260505233003 27 188 9.7 25.7 0.00 0.00 0.00 77 1005.2
20260505232507 27 198 9.7 20.9 0.00 0.00 0.00 77 1005.1
20260505232003 27 184 9.7 25.7 0.00 0.00 0.00 77 1005.1
20260505231503 28 134 9.7 25.7 0.00 0.00 0.00 76 1005.4
20260505231002 27 207 11.3 24.1 0.00 0.00 0.00 76 1005.3
20260505230502 28 174 9.7 24.1 0.00 0.00 0.00 76 1005.2
20260505230003 28 168 11.3 27.4 0.00 0.00 0.00 76 1005.2
20260505225505 28 173 12.9 27.4 0.00 0.00 0.00 75 1005.2
20260505225102 28 170 9.7 27.4 0.00 0.00 0.00 75 1005.2
20260505224501 28 164 8.0 32.2 0.00 0.00 0.00 75 1005.3
20260505224001 28 178 14.5 32.2 0.00 0.00 0.00 74 1005.2
20260505223503 28 200 9.7 27.4 0.00 0.00 0.00 73 1005.2
20260505223002 28 173 9.7 27.4 0.00 0.00 0.00 73 1005.2
20260505222600 29 182 11.3 29.0 0.00 0.00 0.00 72 1005.4
20260505222100 29 165 11.3 29.0 0.00 0.00 0.00 71 1005.3
20260505221600 29 173 8.0 19.3 0.00 0.00 0.00 71 1005.2
20260505221059 30 182 9.7 24.1 0.00 0.00 0.00 70 1005.3
20260505220559 30 196 8.0 29.0 0.00 0.00 0.00 71 1005.4
20260505220058 29 170 8.0 29.0 0.00 0.00 0.00 71 1005.5
20260505215558 29 126 9.7 24.1 0.00 0.00 0.00 71 1005.5
20260505215058 29 130 8.0 32.2 0.00 0.00 0.00 71 1005.4
20260505214600 29 198 8.0 32.2 0.00 0.00 0.00 71 1005.4
20260505214057 29 209 8.0 29.0 0.00 0.00 0.00 71 1005.6
20260505213556 29 144 8.0 29.0 0.00 0.00 0.00 71 1005.7
20260505213056 30 202 9.7 22.5 0.00 0.00 0.00 69 1005.8
20260505212556 30 180 9.7 32.2 0.00 0.00 0.00 69 1005.8
20260505212056 30 199 14.5 32.2 0.00 0.00 0.00 69 1005.9
20260505211609 30 192 8.0 20.9 0.00 0.00 0.00 70 1006.0
20260505211056 30 167 9.7 29.0 0.00 0.00 0.00 70 1005.9
20260505210555 30 171 11.3 29.0 0.00 0.00 0.00 70 1005.9
20260505210057 30 140 6.4 29.0 0.00 0.00 0.00 71 1005.9
20260505205554 29 173 12.9 29.0 0.00 0.00 0.00 71 1006.0
20260505205055 29 148 11.3 25.7 0.00 0.00 0.00 71 1006.2
20260505204553 29 163 8.0 25.7 0.00 0.00 0.00 70 1006.3
20260505204051 30 215 11.3 20.9 0.00 0.00 0.00 70 1006.4
20260505203650 30 219 8.0 20.9 0.00 0.00 0.00 71 1006.4
20260505203052 30 160 8.0 20.9 0.00 0.00 0.00 70 1006.5
20260505202549 30 233 9.7 19.3 0.00 0.00 0.00 71 1006.7
20260505202052 30 155 9.7 17.7 0.00 0.00 0.00 70 1006.8
20260505201556 30 186 8.0 22.5 0.00 0.00 0.00 70 1006.8